Location: Dreilärchen
(47.9312°N, 8.6113°E)
Time: 22:03:48
(UTC+00:00)

Cosmos 1461 - Pass Details

Date: 26 May 2022
Orbit: 516 x 638 km, 65.0° (Epoch: 03 July)

Event Time Altitude Azimuth Distance (km) Brightness Sun altitude
Rises 00:02:20 0° 316° (NW) 2,737 6.9 -20.4°
Reaches altitude 10° 00:04:37 10° 309° (NW) 1,858 5.9 -20.3°
Enters shadow 00:08:16 38° 249° (WSW) 884 3.6 -20.2°
